Tracking 27420 objects as of 28-May-2023
HD Live streaming from Space Station
objects crossing your sky now

ONEWEB-0561

Track ONEWEB-0561 now!
10-day predictions
ONEWEB-0561 is classified as:


NORAD ID: 56710
Int'l Code: 2023-068A
Perigee: 621.9 km
Apogee: 637.5 km
Inclination: 86.7 °
Period: 97.2 minutes
Semi major axis: 7000 km
RCS: Unknown
Launch date: May 20, 2023
Source: United Kingdom (UK)
Launch site: AIR FORCE WESTERN TEST RANGE (AFWTR)
Your satellite tracking list
Your tracking list is empty




NASA's NSSDC Master Catalog

Two Line Element Set (TLE):
1 56710U 23068A   23147.91667824 -.01267517  00000-0 -17276+0 0  9991
2 56710  86.6834 137.2781 0011098 190.5444 346.7460 14.82142540  1306
Source of the keplerian elements: AFSPC